TimeAKDT,TemperatureF,Dew PointF,Humidity,Sea Level PressureIn,VisibilityMPH,Wind Direction,Wind SpeedMPH,Gust SpeedMPH,PrecipitationIn,Events,Conditions,WindDirDegrees,DateUTC
12:53 AM,32.0,26.1,79,30.32,10.0,North,10.4,-,N/A,,Scattered Clouds,350,2012-10-08 08:53:00
1:53 AM,32.0,25.0,75,30.32,10.0,North,8.1,-,N/A,,Clear,10,2012-10-08 09:53:00
2:53 AM,30.9,25.0,79,30.33,10.0,NNE,3.5,-,N/A,,Clear,30,2012-10-08 10:53:00
3:53 AM,30.0,26.1,85,30.34,10.0,Calm,Calm,-,N/A,,Partly Cloudy,0,2012-10-08 11:53:00
4:53 AM,28.9,25.0,85,30.35,10.0,NW,4.6,-,N/A,,Scattered Clouds,320,2012-10-08 12:53:00
5:53 AM,32.0,26.1,79,30.36,10.0,North,4.6,-,N/A,,Scattered Clouds,360,2012-10-08 13:53:00
6:53 AM,30.9,26.1,82,30.37,10.0,North,9.2,-,N/A,,Partly Cloudy,350,2012-10-08 14:53:00
7:53 AM,30.9,25.0,79,30.38,10.0,North,15.0,-,N/A,,Scattered Clouds,360,2012-10-08 15:53:00
8:53 AM,30.9,24.1,76,30.38,10.0,North,10.4,-,N/A,,Scattered Clouds,10,2012-10-08 16:53:00
9:53 AM,30.0,23.0,75,30.39,10.0,North,6.9,-,N/A,,Scattered Clouds,350,2012-10-08 17:53:00
10:53 AM,32.0,25.0,75,30.40,10.0,North,9.2,-,N/A,,Scattered Clouds,10,2012-10-08 18:53:00
11:53 AM,33.1,26.1,75,30.42,10.0,NNW,10.4,-,N/A,,Scattered Clouds,340,2012-10-08 19:53:00
12:53 PM,35.1,25.0,67,30.43,10.0,North,19.6,25.3,N/A,,Mostly Cloudy,360,2012-10-08 20:53:00
1:53 PM,35.1,25.0,67,30.43,10.0,North,18.4,24.2,N/A,,Mostly Cloudy,360,2012-10-08 21:53:00
2:53 PM,36.0,24.1,62,30.45,10.0,North,17.3,23.0,N/A,,Mostly Cloudy,360,2012-10-08 22:53:00
3:53 PM,36.0,24.1,62,30.44,10.0,North,17.3,-,N/A,,Mostly Cloudy,10,2012-10-08 23:53:00
4:53 PM,35.1,24.1,64,30.45,10.0,North,13.8,-,N/A,,Mostly Cloudy,10,2012-10-09 00:53:00
5:53 PM,35.1,24.1,64,30.46,10.0,North,15.0,21.9,N/A,,Mostly Cloudy,10,2012-10-09 01:53:00
6:53 PM,35.1,24.1,64,30.47,10.0,NNE,17.3,20.7,N/A,,Mostly Cloudy,20,2012-10-09 02:53:00
7:53 PM,33.1,23.0,66,30.46,10.0,North,15.0,-,N/A,,Mostly Cloudy,360,2012-10-09 03:53:00
8:53 PM,33.1,21.9,64,30.46,10.0,North,15.0,-,N/A,,Mostly Cloudy,10,2012-10-09 04:53:00
9:53 PM,32.0,21.9,66,30.46,10.0,North,13.8,-,N/A,,Scattered Clouds,10,2012-10-09 05:53:00
10:53 PM,33.1,21.9,64,30.46,10.0,NNE,19.6,-,N/A,,Scattered Clouds,20,2012-10-09 06:53:00
11:53 PM,32.0,21.2,64,30.47,10.0,NNE,12.7,-,N/A,,Scattered Clouds,30,2012-10-09 07:53:00